TimeEST,TemperatureF,Dew PointF,Humidity,Sea Level PressureIn,VisibilityMPH,Wind Direction,Wind SpeedMPH,Gust SpeedMPH,PrecipitationIn,Events,Conditions,WindDirDegrees,DateUTC
12:02 AM,64.4,62.6,94,29.88,10.0,Calm,Calm,-,N/A,,Mostly Cloudy,0,2013-02-24 05:02:00
12:13 AM,64.4,62.6,94,29.89,10.0,NW,3.5,-,N/A,,Mostly Cloudy,310,2013-02-24 05:13:00
12:53 AM,64.9,62.1,90,29.91,10.0,NW,8.1,-,N/A,,Overcast,320,2013-02-24 05:53:00
1:41 AM,64.4,62.6,94,29.91,10.0,NW,3.5,-,N/A,,Overcast,320,2013-02-24 06:41:00
1:53 AM,64.9,62.1,90,29.92,10.0,Calm,Calm,-,N/A,,Overcast,0,2013-02-24 06:53:00
2:14 AM,64.4,62.6,94,29.92,10.0,NNW,3.5,-,N/A,,Overcast,330,2013-02-24 07:14:00
2:25 AM,64.4,62.6,94,29.92,10.0,NNW,5.8,-,N/A,,Overcast,340,2013-02-24 07:25:00
2:51 AM,62.6,59.0,88,29.92,10.0,NNW,15.0,-,N/A,,Overcast,340,2013-02-24 07:51:00
2:53 AM,61.0,59.0,93,29.92,10.0,NNW,12.7,-,N/A,,Overcast,330,2013-02-24 07:53:00
3:32 AM,60.8,55.4,82,29.93,10.0,North,8.1,-,N/A,,Overcast,350,2013-02-24 08:32:00
3:39 AM,60.8,55.4,82,29.92,10.0,NNW,6.9,-,N/A,,Overcast,340,2013-02-24 08:39:00
3:53 AM,60.1,57.0,90,29.92,10.0,North,4.6,-,N/A,,Overcast,350,2013-02-24 08:53:00
4:18 AM,59.0,55.4,88,29.91,10.0,North,8.1,-,N/A,,Overcast,10,2013-02-24 09:18:00
4:51 AM,59.0,55.4,88,29.93,10.0,North,6.9,-,N/A,,Overcast,350,2013-02-24 09:51:00
4:53 AM,57.9,55.0,90,29.92,10.0,North,5.8,-,N/A,,Overcast,350,2013-02-24 09:53:00
5:53 AM,57.9,54.0,87,29.95,10.0,North,3.5,-,N/A,,Overcast,10,2013-02-24 10:53:00
6:53 AM,57.9,54.0,87,29.97,10.0,NNE,3.5,-,N/A,,Overcast,30,2013-02-24 11:53:00
7:29 AM,57.2,53.6,88,29.96,10.0,NE,4.6,-,N/A,,Overcast,40,2013-02-24 12:29:00
7:53 AM,57.9,54.0,87,29.97,10.0,NNE,3.5,-,N/A,,Overcast,30,2013-02-24 12:53:00
8:53 AM,60.1,52.0,75,29.99,10.0,NE,6.9,-,N/A,,Mostly Cloudy,50,2013-02-24 13:53:00
9:53 AM,61.0,52.0,72,30.00,10.0,East,3.5,-,N/A,,Scattered Clouds,100,2013-02-24 14:53:00
10:53 AM,63.0,53.1,70,30.01,10.0,ESE,3.5,-,N/A,,Mostly Cloudy,110,2013-02-24 15:53:00
11:53 AM,69.1,52.0,54,29.98,10.0,ENE,5.8,-,N/A,,Scattered Clouds,60,2013-02-24 16:53:00
12:53 PM,72.0,50.0,46,29.97,10.0,NE,6.9,-,N/A,,Partly Cloudy,40,2013-02-24 17:53:00
1:53 PM,73.9,50.0,43,29.95,10.0,East,8.1,-,N/A,,Partly Cloudy,100,2013-02-24 18:53:00
2:53 PM,75.9,50.0,40,29.93,10.0,East,4.6,-,N/A,,Partly Cloudy,80,2013-02-24 19:53:00
3:53 PM,75.0,51.1,43,29.91,10.0,East,4.6,-,N/A,,Partly Cloudy,100,2013-02-24 20:53:00
4:07 PM,75.2,50.0,41,29.91,10.0,East,4.6,-,N/A,Thunderstorm,Thunderstorm,100,2013-02-24 21:07:00
4:53 PM,73.9,50.0,43,29.90,10.0,ENE,6.9,-,N/A,Thunderstorm,Thunderstorm,70,2013-02-24 21:53:00
5:17 PM,66.2,55.4,68,29.94,1.2,Variable,4.6,-,0.17,Rain-Hail-Thunderstorm,Heavy Thunderstorms with Hail,0,2013-02-24 22:17:00
5:24 PM,64.4,57.2,77,29.94,10.0,West,5.8,-,0.18,Rain-Thunderstorm,Light Thunderstorms and Rain,260,2013-02-24 22:24:00
5:58 PM,62.6,59.0,88,29.96,6.0,SW,4.6,-,0.22,Rain-Thunderstorm,Thunderstorms and Rain,220,2013-02-24 22:58:00
6:53 PM,63.0,60.1,90,29.93,10.0,NE,3.5,-,0.29,,Overcast,40,2013-02-24 23:53:00
7:53 PM,63.0,60.1,90,29.94,10.0,Calm,Calm,-,N/A,,Partly Cloudy,0,2013-02-25 00:53:00
8:53 PM,62.1,57.9,86,29.93,10.0,NE,3.5,-,N/A,,Mostly Cloudy,40,2013-02-25 01:53:00
9:53 PM,62.1,55.9,80,29.93,10.0,NNE,4.6,-,N/A,,Overcast,30,2013-02-25 02:53:00
10:53 PM,62.1,55.0,78,29.93,10.0,ESE,3.5,-,N/A,,Overcast,110,2013-02-25 03:53:00
11:11 PM,62.6,55.4,77,-9999,10.0,ESE,4.6,-,0.00,Rain-Thunderstorm,Light Rain,120,2013-02-25 04:11:00
11:34 PM,62.6,55.4,77,-9999,10.0,NE,3.5,-,0.00,,Overcast,50,2013-02-25 04:34:00
11:53 PM,62.1,54.0,75,-9999,10.0,NE,3.5,-,0.00,Rain,Light Rain,50,2013-02-25 04:53:00